Wind_Speed
34 37 32 26 30 33 33 31 29 26 25 25 12 11 21 29 26 22 18 8 3 5 7 5 4 11 14 16 16 17 17 18 18 18 16 13 11 9 8 6 6 6 7 7
40 34 27 26 28 35 37 34 31 23 24 21 17 18 33 32 26 30 19 11 5 8 3 5 3 10 14 17 18 19 19 19 20 19 17 14 11 10 9 8 7 7 7 7
35 24 33 33 31 34 38 37 30 23 25 20 16 17 36 41 27 31 35 16 16 11 7 2 1 8 17 19 18 18 21 21 22 20 17 15 13 11 10 8 7 7 8 8
35 34 38 36 34 31 33 34 33 26 34 30 31 37 33 31 32 28 26 29 18 3 12 2 2 8 15 19 19 18 21 22 22 20 18 16 14 11 9 10 9 7 8 7
36 36 39 39 30 31 26 33 36 34 39 35 35 34 27 34 33 29 30 19 17 14 18 7 7 9 12 17 17 16 20 22 20 20 19 16 13 11 12 12 10 9 7 4
43 37 40 38 34 37 28 34 38 41 42 50 43 40 38 37 29 29 31 24 14 4 8 9 11 10 11 16 15 14 15 17 20 19 17 16 13 12 13 12 11 11 8 4
51 46 42 42 39 41 36 35 36 42 52 50 45 47 42 33 29 26 28 28 24 10 5 8 8 11 11 16 17 17 16 15 17 18 16 15 14 13 12 11 10 10 8 6
53 52 51 46 45 42 37 34 38 41 46 44 45 45 36 36 31 26 28 33 29 32 9 4 7 10 12 15 18 17 17 19 18 17 17 15 13 13 12 11 11 10 9 9
57 54 43 46 44 43 40 45 36 34 34 37 40 39 33 28 33 36 32 38 34 32 15 7 9 10 13 15 17 18 19 21 20 19 17 15 14 12 12 11 10 10 11 13
56 48 48 40 43 44 47 34 40 39 37 33 27 24 13 28 34 41 36 41 29 26 20 20 10 8 10 16 18 18 18 20 20 19 18 16 15 13 12 12 12 11 11 11
57 55 54 37 46 50 50 44 39 37 37 30 22 7 7 7 6 25 34 27 23 21 27 20 8 6 9 15 18 20 18 17 16 16 17 16 15 15 14 11 10 11 11 12
54 60 54 56 43 45 42 49 43 43 37 31 19 20 21 21 22 14 18 33 27 28 34 25 13 12 12 12 17 20 20 18 19 20 19 18 16 13 11 9 7 6 5 3
61 66 58 58 51 45 40 46 47 41 35 37 32 25 15 18 17 19 16 23 41 37 36 34 25 16 10 13 17 17 20 20 20 18 17 16 14 10 8 7 6 4 4 2
72 72 70 61 58 52 46 39 42 46 43 35 36 19 10 13 18 22 14 25 28 44 39 36 31 20 14 13 17 18 20 21 20 18 18 15 12 9 9 8 4 3 3 4
72 74 74 64 58 53 42 46 36 48 43 41 39 28 21 15 18 22 21 21 26 33 43 43 34 25 19 18 18 21 21 21 20 18 18 15 13 9 9 7 5 3 4 2
73 71 77 68 57 44 39 41 34 38 45 38 43 32 25 25 25 26 26 29 27 34 36 37 38 34 27 24 22 26 26 22 20 18 16 15 13 11 10 7 6 4 3 2
71 68 73 67 58 49 45 46 32 30 36 44 48 34 23 29 30 33 31 33 37 37 43 45 42 38 29 22 17 16 22 26 24 21 19 16 11 9 9 8 6 5 6 6
73 72 71 71 59 59 43 47 49 34 28 41 42 29 24 21 27 30 35 28 31 39 40 43 42 30 22 24 21 19 24 29 29 25 23 18 14 14 13 9 8 8 8 10
66 69 67 73 65 62 44 40 38 46 41 44 46 31 31 36 38 40 41 39 38 39 38 32 27 24 23 25 26 20 22 26 27 27 24 21 19 16 13 11 11 11 12 14
64 68 68 73 65 60 54 51 47 47 50 50 51 42 41 40 37 43 41 46 39 36 34 34 32 28 24 25 25 26 25 25 23 23 21 22 22 21 19 19 19 20 19 19
65 70 65 72 56 67 56 59 55 51 54 57 56 49 49 52 52 51 47 45 45 38 34 34 32 32 34 30 29 30 28 25 27 29 28 27 25 25 25 28 28 25 26 25
44 62 64 54 67 64 61 63 62 61 60 64 64 51 61 60 58 54 50 39 42 40 39 36 35 31 30 33 33 32 28 22 23 25 26 30 30 29 30 32 33 32 30 31
32 53 68 62 42 67 52 62 69 71 68 71 70 62 68 66 63 61 58 50 40 38 38 38 37 35 33 30 27 23 24 24 22 33 32 36 38 37 37 37 37 37 36 36
33 46 60 70 48 64 50 46 77 74 69 71 73 75 76 74 71 66 62 54 48 40 37 36 37 37 34 30 26 27 25 24 26 26 31 38 39 39 41 38 36 37 39 39
29 36 55 59 60 68 62 52 55 81 69 70 74 76 79 80 75 71 68 63 51 35 39 43 43 41 37 33 32 33 31 28 28 30 29 31 35 38 40 37 34 34 35 36
45 45 52 65 63 69 72 65 51 62 79 71 73 77 77 74 70 66 63 58 42 49 47 44 45 43 40 37 36 35 34 34 34 33 32 32 34 35 36 37 37 36 35 35
Wind_Direction
234 234 236 240 239 234 231 230 227 229 205 205 206 206 247 259 277 297 233 262 269 318 339 347 288 211 198 193 180 176 178 171 167 169 170 167 164 157 150 149 142 123 107 94
233 231 230 231 226 228 230 226 225 217 201 209 212 208 248 257 281 290 268 222 157 328 10 312 309 216 196 198 191 187 180 179 176 175 171 168 169 162 164 170 162 142 130 114
240 234 234 228 227 224 222 226 223 209 180 194 223 252 227 241 265 270 292 222 264 284 307 325 254 210 191 194 196 194 188 188 185 183 180 178 180 181 176 176 179 160 145 135
232 227 229 224 224 227 227 220 221 215 179 200 205 237 224 239 247 252 263 256 289 148 283 140 240 209 185 193 197 197 198 197 196 191 192 192 191 189 176 180 184 168 146 132
232 226 230 225 219 225 222 216 217 216 193 197 201 218 232 230 238 267 272 256 289 268 244 240 196 233 202 201 203 200 201 200 199 197 199 200 202 191 187 183 178 171 163 139
224 225 225 223 219 220 212 212 213 211 206 205 194 208 223 241 246 261 269 270 291 337 198 251 225 200 217 201 204 200 197 201 202 204 207 207 201 195 193 193 186 187 192 180
221 220 218 220 215 214 212 205 208 211 210 222 203 205 215 224 232 243 258 259 264 283 287 221 257 220 203 204 201 209 206 203 205 204 206 205 200 192 193 195 200 205 207 208
222 215 218 213 217 218 214 222 227 220 218 224 219 230 232 212 204 229 245 253 262 255 272 210 209 230 205 214 207 206 213 206 204 203 202 197 194 193 197 195 199 212 228 236
220 218 217 218 215 214 206 217 214 217 226 227 228 235 235 233 216 210 211 223 237 250 267 278 216 221 212 218 214 212 211 212 205 201 199 190 190 194 201 209 218 229 234 247
214 218 214 217 220 211 216 217 210 211 214 224 231 234 217 211 222 218 213 220 253 251 262 270 213 212 210 218 215 216 208 206 202 198 194 193 192 196 211 224 234 242 250 253
205 212 204 198 211 213 209 210 211 220 213 210 202 173 165 203 222 236 223 207 223 243 253 255 200 220 256 223 212 210 204 196 196 194 197 197 196 205 213 224 245 258 255 250
200 200 196 198 199 215 214 214 210 215 213 218 189 171 180 230 205 221 227 225 207 225 243 249 236 225 246 226 219 212 206 198 200 201 199 199 203 210 223 239 242 266 281 241
197 194 194 195 190 195 219 213 220 214 210 206 188 174 228 205 214 209 227 215 210 216 231 240 240 220 228 226 224 212 209 205 205 209 206 206 206 218 240 232 246 268 291 317
196 194 195 190 198 195 205 218 213 218 210 195 193 180 218 223 209 210 232 213 209 211 224 235 233 214 211 227 218 216 211 206 214 213 210 209 215 229 226 232 245 295 344 9
198 194 197 191 186 189 203 216 223 216 209 199 183 184 180 203 220 228 231 224 218 208 221 232 232 221 209 222 219 210 213 214 214 214 208 209 217 226 223 237 253 287 337 5
198 193 195 187 179 178 192 215 226 212 213 205 184 196 208 196 206 224 232 234 238 215 212 223 228 229 215 213 224 219 203 213 222 210 214 218 225 231 229 235 234 235 282 253
198 193 194 183 175 183 186 189 215 219 214 208 185 190 211 227 235 227 237 240 234 235 214 215 224 233 221 204 204 222 225 208 212 213 210 222 223 211 206 207 219 242 248 255
198 195 191 178 184 189 175 175 196 211 211 204 177 190 222 228 231 233 237 225 223 225 220 218 224 230 225 222 212 216 219 218 214 211 217 220 211 205 202 207 212 232 247 267
196 198 188 187 190 183 175 177 178 197 196 189 186 196 223 222 226 230 220 213 216 224 229 231 232 235 236 226 225 224 227 229 216 212 214 217 220 222 220 220 235 238 248 263
192 198 191 190 188 190 183 177 174 182 197 189 191 204 206 212 218 228 229 205 215 226 228 232 234 230 223 221 226 224 223 229 234 220 223 232 239 235 233 229 235 247 258 267
186 196 195 195 194 190 186 182 175 181 187 190 198 198 204 208 215 224 229 204 211 218 222 228 232 235 237 236 236 239 236 230 227 231 236 239 241 246 245 236 239 244 251 258
173 186 196 187 200 196 193 186 185 182 183 190 196 198 206 206 210 220 226 218 195 206 213 219 224 225 224 228 234 240 244 241 238 233 242 246 244 245 246 248 244 243 248 253
187 179 190 192 186 193 190 189 188 186 182 190 196 202 201 204 210 219 225 227 206 208 215 221 226 225 229 233 238 240 240 233 214 215 225 235 240 243 245 243 245 247 246 252
201 190 188 194 195 196 184 192 197 189 188 186 194 198 198 207 211 219 226 230 229 217 226 227 226 227 231 235 239 244 240 235 235 228 221 224 229 235 242 245 246 248 252 253
214 213 208 197 204 206 199 197 189 195 195 192 192 197 201 209 216 221 225 230 233 228 226 226 229 230 230 232 233 236 236 234 232 235 232 227 230 237 243 248 249 252 253 255
220 219 219 210 205 210 217 212 201 199 201 203 200 203 206 212 218 222 228 233 230 226 225 225 228 231 238 240 238 238 239 237 236 236 237 237 237 238 240 244 248 248 253 257
Height
5827 5826 5832 5839 5842 5846 5848 5852 5858 5863 5868 5873 5878 5881 5878 5872 5879 5885 5888 5890 5885 5892 5891 5890 5893 5899 5901 5906 5909 5912 5915 5919 5922 5925 5929 5932 5935 5937 5939 5940 5941 5943 5943 5944
5815 5821 5831 5831 5833 5837 5841 5846 5851 5857 5864 5870 5874 5880 5868 5875 5876 5879 5879 5884 5886 5893 5889 5891 5893 5896 5900 5903 5909 5912 5916 5919 5922 5925 5929 5933 5936 5938 5940 5941 5943 5945 5945 5946
5811 5824 5820 5822 5826 5828 5834 5840 5847 5853 5861 5866 5873 5876 5870 5873 5877 5876 5873 5878 5886 5890 5890 5890 5891 5896 5899 5902 5907 5911 5915 5918 5922 5925 5929 5933 5936 5938 5941 5942 5944 5946 5947 5947
5802 5809 5809 5814 5818 5823 5827 5837 5842 5847 5852 5856 5866 5867 5871 5867 5872 5878 5880 5881 5883 5886 5891 5887 5891 5896 5900 5901 5905 5911 5914 5917 5922 5926 5929 5933 5935 5938 5941 5942 5944 5947 5948 5948
5795 5800 5802 5806 5816 5817 5825 5830 5835 5841 5843 5849 5853 5861 5864 5867 5867 5870 5874 5878 5880 5883 5889 5886 5888 5895 5900 5902 5904 5909 5913 5916 5921 5925 5928 5932 5935 5938 5940 5941 5944 5946 5948 5949
5780 5788 5792 5801 5807 5808 5817 5820 5826 5833 5837 5832 5843 5850 5856 5860 5864 5867 5866 5870 5872 5877 5881 5886 5888 5889 5897 5901 5904 5907 5912 5915 5919 5923 5927 5931 5934 5937 5940 5941 5943 5945 5947 5949
5766 5775 5783 5790 5796 5799 5805 5810 5816 5820 5821 5824 5839 5841 5846 5857 5863 5869 5862 5864 5870 5874 5882 5889 5886 5889 5892 5898 5901 5905 5910 5913 5917 5921 5926 5930 5933 5936 5939 5942 5944 5945 5947 5948
5755 5763 5768 5779 5785 5794 5800 5806 5809 5810 5816 5825 5834 5831 5840 5850 5857 5865 5867 5864 5865 5870 5880 5885 5882 5887 5889 5895 5900 5902 5907 5911 5914 5919 5922 5927 5932 5935 5938 5941 5943 5945 5945 5946
5741 5752 5764 5772 5779 5786 5792 5793 5806 5811 5817 5820 5826 5834 5840 5846 5849 5854 5860 5861 5860 5864 5870 5876 5884 5885 5886 5892 5897 5900 5903 5908 5912 5916 5920 5925 5929 5933 5936 5938 5941 5943 5944 5943
5728 5736 5752 5763 5772 5778 5782 5794 5798 5801 5807 5811 5820 5826 5835 5837 5841 5846 5850 5858 5857 5861 5864 5873 5881 5880 5883 5888 5893 5897 5900 5904 5909 5913 5918 5923 5926 5930 5933 5935 5936 5938 5940 5941
5705 5722 5738 5751 5755 5768 5774 5779 5789 5800 5803 5807 5815 5821 5829 5835 5839 5841 5848 5850 5855 5857 5859 5870 5874 5879 5881 5885 5890 5894 5898 5902 5907 5911 5916 5920 5923 5926 5929 5931 5933 5935 5936 5936
5690 5705 5719 5730 5750 5763 5767 5774 5783 5787 5798 5805 5813 5815 5819 5827 5832 5839 5842 5850 5851 5857 5858 5864 5871 5876 5879 5883 5888 5893 5896 5900 5904 5907 5912 5916 5920 5923 5926 5928 5930 5931 5932 5933
5676 5692 5709 5722 5732 5744 5756 5766 5776 5784 5795 5799 5807 5813 5817 5822 5828 5834 5839 5844 5851 5853 5854 5860 5867 5873 5877 5880 5884 5889 5894 5897 5901 5905 5910 5914 5917 5920 5923 5926 5927 5929 5929 5931
5659 5679 5692 5707 5726 5738 5748 5758 5769 5776 5784 5796 5802 5810 5816 5819 5824 5829 5834 5839 5846 5851 5851 5856 5861 5868 5874 5876 5880 5885 5890 5894 5898 5902 5907 5911 5914 5918 5921 5923 5925 5926 5926 5928
5652 5674 5687 5704 5716 5729 5742 5753 5761 5768 5779 5788 5802 5803 5812 5818 5822 5825 5831 5835 5840 5847 5849 5850 5857 5863 5869 5873 5876 5880 5884 5890 5895 5899 5903 5907 5911 5915 5918 5920 5923 5924 5925 5926
5646 5663 5674 5695 5712 5724 5731 5748 5756 5766 5775 5785 5798 5801 5807 5815 5818 5822 5827 5832 5835 5839 5845 5846 5849 5854 5862 5868 5873 5877 5879 5885 5891 5896 5900 5903 5908 5911 5914 5917 5919 5922 5923 5924
5642 5655 5670 5695 5708 5713 5718 5730 5752 5762 5771 5780 5788 5798 5800 5806 5812 5818 5821 5825 5829 5832 5837 5841 5844 5848 5855 5862 5871 5874 5878 5881 5886 5892 5896 5900 5904 5908 5911 5913 5915 5918 5920 5921
5635 5647 5665 5687 5692 5702 5724 5732 5740 5756 5767 5776 5786 5791 5794 5800 5802 5807 5812 5817 5821 5826 5831 5835 5838 5843 5850 5857 5862 5869 5871 5876 5882 5887 5892 5897 5902 5905 5907 5909 5912 5915 5916 5918
5635 5647 5663 5674 5681 5705 5718 5721 5731 5747 5755 5761 5771 5781 5786 5785 5789 5794 5802 5808 5813 5817 5824 5830 5836 5840 5844 5849 5856 5861 5867 5871 5877 5882 5888 5892 5897 5900 5903 5906 5908 5910 5912 5914
5628 5641 5656 5666 5681 5693 5698 5708 5719 5729 5742 5753 5760 5766 5772 5774 5780 5783 5791 5803 5808 5813 5819 5826 5832 5837 5841 5844 5850 5855 5861 5866 5872 5878 5883 5886 5889 5893 5897 5900 5903 5904 5906 5908
5623 5636 5650 5662 5669 5679 5688 5697 5709 5717 5726 5738 5745 5748 5752 5762 5765 5772 5780 5796 5802 5809 5815 5821 5826 5832 5837 5841 5845 5849 5853 5859 5866 5869 5872 5876 5881 5885 5888 5891 5894 5896 5899 5901
5616 5633 5648 5658 5664 5672 5677 5682 5695 5703 5711 5722 5730 5731 5745 5750 5757 5765 5772 5785 5796 5802 5807 5812 5817 5823 5827 5832 5837 5842 5847 5853 5857 5862 5867 5870 5873 5876 5879 5882 5885 5887 5890 5893
5614 5623 5637 5646 5648 5661 5668 5675 5675 5687 5696 5709 5718 5727 5737 5744 5753 5759 5764 5776 5790 5797 5803 5809 5813 5817 5821 5825 5831 5836 5839 5842 5846 5851 5856 5860 5863 5866 5868 5871 5874 5877 5880 5883
5609 5619 5624 5635 5635 5642 5656 5656 5669 5681 5691 5700 5713 5723 5735 5738 5747 5755 5761 5770 5779 5791 5798 5803 5806 5810 5815 5821 5826 5828 5832 5836 5839 5842 5847 5851 5853 5856 5858 5861 5864 5867 5869 5871
5615 5615 5617 5627 5630 5640 5641 5653 5660 5673 5681 5690 5704 5718 5726 5732 5741 5749 5756 5763 5773 5786 5791 5794 5797 5803 5809 5814 5817 5819 5824 5828 5831 5834 5838 5842 5845 5848 5850 5852 5854 5856 5858 5861
5607 5604 5610 5621 5628 5636 5645 5655 5663 5671 5681 5692 5700 5706 5715 5724 5731 5741 5750 5759 5770 5774 5780 5784 5788 5795 5800 5804 5808 5812 5815 5819 5822 5826 5830 5833 5836 5838 5841 5842 5844 5847 5849 5851